Regional Weather Roundup
Issued by NWS Albany, NY

Home | Current Version | Previous Version | Text Only | Print | Product List | Glossary On
Versions: 1 2 3 4 5 6 7 8 9 10 11 12 13 14 15 16 17 18 19 20 21 22 23 24 25 26 27 28 29 30 31 32 33 34 35 36 37 38 39 40 41 42 43 44 45 46 47 48 49 50
000
ASUS41 KALY 281710
RWRALY

NEW YORK STATE HOURLY WEATHER ROUNDUP
NATIONAL WEATHER SERVICE ALBANY NY
100 PM EDT SUN MAY 28 2017

NOTE: "FAIR" INDICATES FEW OR NO CLOUDS BELOW 12,000 FEET WITH NO
SIGNIFICANT WEATHER AND/OR NO OBSTRUCTIONS TO VISIBILITY.

NYZ032-033-038>043-046>054-057>066-NYZ062>081-082-084-281800-
EAST


CITY           SKY/WX    TMP DP  RH WIND       PRES   REMARKS
ALBANY         CLOUDY    71  54  54 SE7       29.92F
GLENS FALLS    NOT AVBL
POUGHKEEPSIE   CLOUDY    71  57  61 S6        29.93R
NEWBURGH       PTSUNNY   72  61  68 SE9       29.95R
MONTGOMERY     CLOUDY    72  58  61 S8        29.93R
WHITE PLAINS   CLOUDY    69  58  67 S8        29.96R
ISLIP          CLOUDY    66  55  67 S12       29.98R
NEW YORK CITY  CLOUDY    69  55  60 S13G20    29.96R
CENTRAL PARK   CLOUDY    70  58  65 VRB5      29.99R
$$

NYZ005>009-017-018-044>046-055-056-281800-
CENTRAL


CITY           SKY/WX    TMP DP  RH WIND       PRES   REMARKS
FULTON         CLOUDY    71  59  65 VRB5      29.87R
SYRACUSE       CLOUDY    72  58  61 E7        29.86R
ROME           CLOUDY    71  57  61 SE7       29.88S
ELMIRA         CLOUDY    75  56  51 S12       29.85S
BINGHAMTON     PTSUNNY   68  52  56 S10       29.90R
MONTICELLO     CLOUDY    68  55  64 S9        29.96S
$$

NYZ026>034-041>043-087-281800-
NORTH


CITY           SKY/WX    TMP DP  RH WIND       PRES   REMARKS
WATERTOWN      MOSUNNY   72  57  59 W8        29.87R
FORT DRUM      NOT AVBL
OGDENSBURG     FAIR      76  52  42 CALM      29.88R
MASSENA        MOSUNNY   76  52  43 CALM      29.87F
SARANAC LAKE   MOSUNNY   70  47  43 SE12G17   29.89F
PLATTSBURGH    MOSUNNY   75  50  41 SE9       29.89S
$$

NYZ001>004-010>016-019>021-085-281800-
WEST


CITY           SKY/WX    TMP DP  RH WIND       PRES   REMARKS
NIAGARA FALLS  MOSUNNY   75  58  55 E9        29.80F
BUFFALO        PTSUNNY   74  57  55 N3        29.81F
DUNKIRK        MOSUNNY   70  59  68 N10       29.80F
JAMESTOWN      CLOUDY    72  55  56 S8        29.83F
WELLSVILLE     CLOUDY    69  56  62 VRB7      29.88F
ROCHESTER      PTSUNNY   73  59  61 VRB5      29.84F
PENN YAN       CLOUDY    73  58  59 NE5       29.86S
$$

             KEY
       WCI = WIND CHILL INDEX
       VSB = VISIBILITY
       HX  = HEAT INDEX
$$



USA.gov is the U.S. government's official web portal to all federal, state and local government web resources and services.